Weather History for Jacksonville, IL

Change the Weather History Date:

Wednesday, January 9, 2013

  Actual Average (KSPI) Record (KSPI)
Temperature  
Mean Temperature 42 °F 27 °F  
Max Temperature 52 °F 35 °F 60 °F (1880)
Min Temperature 32 °F 19 °F -13 °F (1886)
Degree Days  
Heating Degree Days 23 38  
Month to date heating degree days 342  
Since 1 July heating degree days 2482  
Cooling Degree Days 0 0  
Month to date cooling degree days 0  
Year to date cooling degree days 0  
Moisture  
Dew Point 33 °F    
Average Humidity 71    
Maximum Humidity 87    
Minimum Humidity 49    
Precipitation  
Precipitation 0.00 in 0.06 in 1.46 in (1901)
Month to date precipitation 0.59  
Year to date precipitation 0.59  
Snow  
Snow 0.00 in 0.20 in 8.00 in (1987)
Month to date snowfall 1.9  
Since 1 July snowfall 8.1  
Snow Depth -    
Sea Level Pressure  
Sea Level Pressure 30.36 in    
Wind  
Wind Speed 8 mph (WSW)    
Max Wind Speed 15 mph    
Max Gust Speed 17 mph    
Visibility 10 miles    
Events      
T = Trace of Precipitation, MM = Missing Value Source: NWS Daily Summary

Daily Weather History Graph

Daily Weather History Graph

Search for Another Location

Airport:

Trip Planner

Search our weather history database for the weather conditions in past years. The results will help you decide how hot, cold, wet, or windy it might be!

Date:

Astronomy

Jan. 09, 2013 Rise Set
Actual Time 7:21 AM CST 4:54 PM CST
Civil Twilight 6:52 AM CST 5:24 PM CST
Nautical Twilight 6:18 AM CST 5:58 PM CST
Astronomical Twilight 5:45 AM CST 6:30 PM CST
Moon 5:01 AM CST (1/9) 2:56 PM CST (1/9)
Length of Visible Light 10h 32m
Length of Day
9h 32m
Waning Crescent, 6% of the Moon is Illuminated
Jan 9
Waning Crescent
Jan 11
New
Jan 18
First Quarter
Jan 26
Full
Feb 3
Last Quarter

Hourly Weather History & Observations

Time (CST) Temp. Windchill Dew Point Humidity Pressure Visibility Wind Dir Wind Speed Gust Speed Precip Events Conditions
12:15 AM 44.1 °F 39.0 °F 33.3 °F 66% 30.13 in 10.0 mi SSW 9.2 mph - N/A   Scattered Clouds
12:35 AM 44.8 °F 39.9 °F 33.4 °F 64% 30.14 in 10.0 mi SSW 9.2 mph - N/A   Mostly Cloudy
12:55 AM 43.9 °F 38.8 °F 33.1 °F 66% 30.15 in 10.0 mi SSW 9.2 mph - N/A   Scattered Clouds
1:15 AM 43.2 °F 38.4 °F 33.1 °F 68% 30.15 in 10.0 mi SW 8.1 mph - N/A   Scattered Clouds
1:35 AM 42.1 °F 37.1 °F 32.9 °F 70% 30.16 in 10.0 mi SW 8.1 mph - N/A   Mostly Cloudy
1:55 AM 43.5 °F 37.9 °F 33.4 °F 68% 30.17 in 10.0 mi SSW 10.4 mph - N/A   Mostly Cloudy
2:15 AM 42.8 °F 37.5 °F 33.4 °F 70% 30.18 in 10.0 mi SW 9.2 mph - N/A   Scattered Clouds
2:35 AM 41.0 °F 35.2 °F 33.1 °F 73% 30.19 in 10.0 mi SW 9.2 mph - N/A   Clear
2:55 AM 42.8 °F 37.5 °F 34.0 °F 71% 30.20 in 10.0 mi WSW 9.2 mph - N/A   Clear
3:15 AM 43.5 °F 38.3 °F 34.2 °F 70% 30.21 in 10.0 mi WSW 9.2 mph - N/A   Clear
3:35 AM 42.8 °F 37.5 °F 34.2 °F 72% 30.21 in 10.0 mi WSW 9.2 mph - N/A   Clear
3:55 AM 42.1 °F 37.1 °F 34.0 °F 73% 30.22 in 10.0 mi WSW 8.1 mph - N/A   Clear
4:15 AM 42.1 °F 37.1 °F 34.0 °F 73% 30.23 in 10.0 mi WSW 8.1 mph - N/A   Clear
4:35 AM 40.5 °F 35.8 °F 33.8 °F 77% 30.23 in 10.0 mi SW 6.9 mph - N/A   Clear
4:55 AM 39.9 °F 35.1 °F 33.8 °F 79% 30.24 in 10.0 mi SW 6.9 mph - N/A   Clear
5:15 AM 39.4 °F 34.5 °F 33.6 °F 80% 30.24 in 10.0 mi WSW 6.9 mph - N/A   Clear
5:35 AM 39.2 °F 34.2 °F 33.4 °F 80% 30.26 in 10.0 mi WSW 6.9 mph - N/A   Clear
5:55 AM 38.5 °F 35.0 °F 33.3 °F 81% 30.26 in 10.0 mi SW 4.6 mph - N/A   Clear
6:15 AM 37.6 °F 34.0 °F 33.1 °F 84% 30.27 in 10.0 mi SW 4.6 mph - N/A   Clear
6:35 AM 37.4 °F 32.8 °F 32.9 °F 84% 30.29 in 10.0 mi SW 5.8 mph - N/A   Clear
6:55 AM 37.4 °F 33.8 °F 32.9 °F 84% 30.30 in 10.0 mi SW 4.6 mph - N/A   Clear
7:15 AM 37.2 °F 32.6 °F 33.1 °F 85% 30.31 in 10.0 mi SW 5.8 mph - N/A   Clear
7:35 AM 37.0 °F 31.0 °F 32.5 °F 84% 30.32 in 10.0 mi SW 8.1 mph - N/A   Clear
7:55 AM 37.9 °F 32.7 °F 33.1 °F 83% 30.33 in 10.0 mi SW 6.9 mph - N/A   Clear
8:15 AM 37.4 °F 32.1 °F 32.9 °F 84% 30.34 in 10.0 mi WSW 6.9 mph - N/A   Clear
8:35 AM 38.3 °F 33.9 °F 33.4 °F 83% 30.35 in 10.0 mi WSW 5.8 mph - N/A   Clear
8:55 AM 41.0 °F 37.1 °F 33.8 °F 76% 30.36 in 10.0 mi WSW 5.8 mph - N/A   Clear
9:15 AM 41.0 °F 37.1 °F 35.1 °F 79% 30.37 in 10.0 mi West 5.8 mph - N/A   Clear
9:35 AM 42.4 °F 38.8 °F 35.4 °F 76% 30.38 in 10.0 mi West 5.8 mph - N/A   Clear
9:55 AM 43.9 °F 39.9 °F 36.0 °F 74% 30.39 in 10.0 mi West 6.9 mph - N/A   Clear
10:15 AM 45.7 °F 41.5 °F 36.5 °F 70% 30.39 in 10.0 mi WNW 8.1 mph - N/A   Clear
10:35 AM 46.6 °F - 36.1 °F 67% 30.40 in 10.0 mi WNW 10.4 mph - N/A   Clear
10:55 AM 47.8 °F - 36.9 °F 66% 30.39 in 10.0 mi NW 10.4 mph - N/A   Clear
11:15 AM 49.3 °F - 37.2 °F 63% 30.39 in 10.0 mi NW 10.4 mph - N/A   Clear
11:35 AM 49.5 °F - 36.7 °F 61% 30.39 in 10.0 mi NW 11.5 mph - N/A   Clear
11:55 AM 50.2 °F - 37.0 °F 61% 30.38 in 10.0 mi NNW 12.7 mph - N/A   Clear
12:15 PM 50.5 °F - 37.0 °F 60% 30.38 in 10.0 mi NW 9.2 mph - N/A   Clear
12:35 PM 50.9 °F - 35.4 °F 55% 30.37 in 10.0 mi NW 9.2 mph - N/A   Clear
12:55 PM 51.8 °F - 36.5 °F 56% 30.38 in 10.0 mi NW 10.4 mph - N/A   Clear
1:15 PM 52.2 °F - 35.8 °F 54% 30.38 in 10.0 mi NW 11.5 mph 17.3 mph N/A   Clear
1:35 PM 52.3 °F - 36.1 °F 54% 30.38 in 10.0 mi NW 11.5 mph - N/A   Clear
1:55 PM 52.7 °F - 34.7 °F 50% 30.39 in 10.0 mi NNW 15.0 mph - N/A   Clear
2:15 PM 52.5 °F - 33.8 °F 49% 30.40 in 10.0 mi NW 11.5 mph - N/A   Clear
2:35 PM 52.2 °F - 33.6 °F 49% 30.40 in 10.0 mi NNW 11.5 mph - N/A   Clear
2:55 PM 51.8 °F - 34.2 °F 51% 30.41 in 10.0 mi NNW 10.4 mph - N/A   Clear
3:15 PM 50.9 °F - 33.4 °F 51% 30.42 in 10.0 mi NNW 9.2 mph - N/A   Clear
3:35 PM 49.8 °F - 33.8 °F 54% 30.43 in 10.0 mi NNW 5.8 mph - N/A   Clear
3:55 PM 48.6 °F - 33.8 °F 57% 30.43 in 10.0 mi NNW 4.6 mph - N/A   Clear
4:15 PM 47.5 °F - 33.3 °F 58% 30.44 in 10.0 mi NNW 4.6 mph - N/A   Clear
4:35 PM 44.8 °F 43.3 °F 33.3 °F 64% 30.44 in 10.0 mi North 3.5 mph - N/A   Clear
4:55 PM 44.8 °F - 32.9 °F 63% 30.45 in 10.0 mi Calm Calm - N/A   Clear
5:15 PM 44.8 °F - 32.9 °F 63% 30.44 in 10.0 mi Calm Calm - N/A   Clear
5:35 PM 40.6 °F - 32.2 °F 72% 30.45 in 10.0 mi Calm Calm - N/A   Clear
5:55 PM 43.2 °F - 33.1 °F 68% 30.45 in 10.0 mi Calm Calm - N/A   Clear
6:15 PM 40.8 °F 37.8 °F 31.8 °F 70% 30.45 in 10.0 mi NE 4.6 mph - N/A   Clear
6:35 PM 38.8 °F 35.4 °F 30.7 °F 73% 30.46 in 10.0 mi ENE 4.6 mph - N/A   Clear
6:55 PM 38.7 °F 35.2 °F 31.5 °F 75% 30.48 in 10.0 mi East 4.6 mph - N/A   Clear
7:15 PM 39.0 °F 36.8 °F 30.2 °F 71% 30.48 in 10.0 mi SE 3.5 mph - N/A   Clear
7:35 PM 37.6 °F 34.0 °F 30.4 °F 75% 30.48 in 10.0 mi SE 4.6 mph - N/A   Clear
7:55 PM 41.0 °F 37.1 °F 32.0 °F 70% 30.48 in 10.0 mi ESE 5.8 mph - N/A   Clear
8:15 PM 37.9 °F 33.5 °F 31.1 °F 76% 30.49 in 10.0 mi SE 5.8 mph - N/A   Clear
8:35 PM 37.8 °F 33.3 °F 31.3 °F 77% 30.49 in 10.0 mi SSE 5.8 mph - N/A   Clear
8:55 PM 37.6 °F 34.0 °F 31.6 °F 79% 30.49 in 10.0 mi SE 4.6 mph - N/A   Clear
9:15 PM 38.1 °F 35.7 °F 31.5 °F 77% 30.49 in 10.0 mi SSE 3.5 mph - N/A   Clear
9:35 PM 34.7 °F - 29.7 °F 82% 30.49 in 10.0 mi Calm Calm - N/A   Clear
9:55 PM 33.8 °F 30.8 °F 30.2 °F 87% 30.50 in 10.0 mi East 3.5 mph - N/A   Clear
10:15 PM 35.4 °F 31.5 °F 30.7 °F 83% 30.49 in 10.0 mi NE 4.6 mph - N/A   Clear
10:35 PM 35.1 °F 31.0 °F 30.9 °F 85% 30.48 in 10.0 mi NE 4.6 mph - N/A   Clear
10:55 PM 35.4 °F 29.7 °F 30.7 °F 83% 30.47 in 10.0 mi NE 6.9 mph - N/A   Clear
11:15 PM 32.7 °F 28.3 °F 28.9 °F 86% 30.47 in 10.0 mi East 4.6 mph - N/A   Clear
11:35 PM 34.9 °F 30.8 °F 30.4 °F 84% 30.47 in 10.0 mi SE 4.6 mph - N/A   Clear
11:55 PM 34.7 °F 30.6 °F 30.4 °F 84% 30.48 in 10.0 mi SE 4.6 mph - N/A   Clear